Location: Mentone
(34.5413°N, 85.5351°W)
Time: 10:10:41
(UTC-05:00)

Vanguard 1 - Visible Passes

Search period start: 22 September 2017 00:00
Search period end: 02 October 2017 00:00
Orbit: 651 x 3832 km, 34.2° (Epoch: 21 September)

Date Brightness Start Highest point End Pass type
(mag) Time Alt. Az. Time Alt. Az. Time Alt. Az.
22 Sep 14.0 04:34:28 10° S 04:51:39 27° SE 05:06:01 10° E visible
23 Sep 13.8 04:53:34 10° SSW 05:12:59 34° SE 05:28:35 10° E visible
24 Sep 14.2 02:59:52 10° SSE 03:09:36 14° SE 03:19:03 10° ESE visible
24 Sep 13.6 05:13:20 10° SSW 05:34:20 43° SE 05:50:37 10° E visible
25 Sep 14.1 03:16:09 10° S 03:30:46 21° SE 03:44:39 10° E visible
25 Sep 13.4 05:33:36 10° SW 05:55:43 51° SSE 06:12:18 10° E visible
26 Sep 13.9 03:34:25 10° S 03:51:54 28° SE 04:08:11 10° E visible
26 Sep 13.2 05:54:16 10° SW 06:17:10 60° SSE 06:33:47 10° ENE visible
27 Sep 13.7 03:53:54 11° SSW 04:13:03 36° SE 04:30:48 10° E visible
28 Sep 14.0 02:01:41 11° SSE 02:10:07 15° SE 02:20:13 10° ESE visible
28 Sep 13.5 04:14:27 12° SSW 04:34:15 45° SE 04:52:52 10° E visible
29 Sep 13.8 02:22:12 17° SSE 02:31:01 22° SE 02:45:47 10° E visible
29 Sep 13.3 04:34:58 13° SW 04:55:33 53° SSE 05:14:39 10° ENE visible
30 Sep 13.6 02:42:38 22° SSE 02:51:54 29° SE 03:09:24 10° E visible
30 Sep 13.2 04:55:24 12° SW 05:16:58 62° SSE 05:36:13 10° ENE visible
01 Oct 13.4 03:03:01 27° S 03:12:51 37° SE 03:32:06 10° E visible
01 Oct 13.1 05:15:46 11° SW 05:38:29 70° SSE 05:57:42 10° ENE visible
